Temp
-4 -5 -5 -5 -5 -6 -6 -6 -5 -5 -5 -5 -5 -5 -5 -6 -5 -5 -5 -5 -5 -5
-5 -5 -5 -5 -6 -6 -6 -6 -6 -6 -6 -6 -6 -6 -6 -6 -6 -6 -6 -6 -5 -5
-6 -6 -6 -6 -6 -6 -6 -7 -7 -7 -7 -7 -7 -7 -7 -6 -6 -6 -6 -6 -6 -6
-8 -8 -7 -7 -7 -7 -8 -8 -7 -8 -8 -8 -8 -8 -8 -7 -7 -7 -7 -7 -7 -7
-8 -8 -8 -8 -9 -9 -9 -9 -9 -9 -9 -8 -9 -9 -8 -8 -8 -8 -8 -8 -8 -8
-9 -9 -9 -10 -10 -10 -10 -10 -10 -10 -9 -9 -9 -9 -9 -9 -10 -10 -10 -10 -9 -9
-11 -11 -11 -11 -11 -11 -10 -10 -10 -11 -10 -11 -11 -11 -10 -11 -11 -11 -11 -10 -10 -10
-12 -12 -12 -12 -12 -12 -12 -12 -12 -12 -12 -12 -12 -12 -12 -12 -12 -12 -11 -11 -10 -10
-13 -13 -13 -13 -14 -14 -13 -13 -13 -13 -13 -13 -13 -13 -12 -11 -11 -11 -11 -11 -11 -10
-14 -14 -14 -14 -14 -14 -14 -14 -14 -14 -14 -14 -14 -14 -13 -11 -11 -11 -12 -12 -12 -11
-15 -15 -15 -15 -15 -15 -15 -15 -15 -15 -15 -15 -14 -15 -13 -12 -12 -12 -13 -13 -13 -13
-16 -16 -16 -16 -16 -16 -16 -16 -16 -16 -16 -16 -15 -15 -14 -13 -13 -13 -13 -13 -13 -13
-17 -17 -17 -17 -17 -17 -17 -17 -17 -16 -16 -16 -16 -15 -15 -13 -13 -13 -13 -13 -13 -12
-17 -17 -17 -18 -18 -18 -17 -17 -17 -17 -16 -16 -15 -15 -15 -13 -12 -13 -13 -13 -13 -13
Height
888 889 889 889 889 890 890 889 887 887 886 885 884 884 884 883 883 882 883 883 882 883
885 886 888 888 888 887 887 888 889 888 887 886 885 884 883 882 882 881 881 881 882 881
884 884 885 886 886 886 885 885 885 884 885 885 885 884 883 882 880 880 879 879 879 878
883 884 884 884 884 883 883 882 882 882 882 882 882 882 881 880 879 878 877 876 876 875
882 882 882 882 882 882 881 879 879 879 879 879 878 878 877 876 876 875 874 874 874 873
879 879 879 880 879 879 879 878 877 876 875 875 875 874 873 872 872 872 872 871 870 869
877 877 876 876 876 876 876 875 874 873 872 872 871 871 870 869 868 868 867 867 865 865
876 875 875 875 874 873 872 871 871 870 869 869 868 867 866 866 865 864 863 861 860 859
874 873 873 873 872 871 870 869 867 866 866 865 864 863 864 863 862 860 859 856 855 853
874 873 872 871 870 869 868 866 865 864 862 860 859 859 859 858 857 855 853 851 849 847
872 871 870 869 868 866 865 863 861 860 858 856 854 854 854 853 851 849 848 846 844 843
871 869 868 866 865 863 861 859 857 856 854 852 850 849 848 847 845 843 841 840 839 837
869 867 865 864 862 860 858 855 854 851 850 848 846 844 843 842 840 836 834 832 830 829
866 864 862 860 858 856 854 852 849 847 845 843 841 838 838 836 833 830 826 822 820 819
Wind_Speed
6 6 6 7 6 6 6 6 5 4 3 2 1 1 2 1 3 4 2 5 5 5
9 9 8 7 7 7 7 8 8 7 7 6 5 5 4 2 4 7 4 4 5 8
10 10 11 10 9 9 9 8 8 8 8 9 9 8 9 7 6 8 9 9 10 11
9 10 11 11 10 10 10 10 10 10 10 10 11 11 11 11 11 12 12 13 13 15
12 13 13 13 11 11 12 11 11 11 12 12 13 13 14 14 14 15 16 16 16 18
13 13 13 13 13 14 14 13 13 13 14 14 15 15 15 16 16 17 17 17 18 20
10 12 13 13 15 15 15 15 15 16 16 16 16 16 16 16 17 17 16 18 18 20
9 11 13 15 15 16 17 17 16 17 16 16 16 17 15 17 18 19 19 20 19 20
8 9 11 11 12 13 14 14 14 14 15 16 17 17 16 18 20 20 20 21 20 20
10 10 10 10 11 12 13 14 15 17 18 19 20 19 18 19 20 19 19 21 21 22
13 13 12 13 14 15 15 16 17 19 19 20 20 18 18 19 20 20 20 22 24 22
14 15 15 16 16 16 17 18 18 19 19 19 21 18 18 19 21 23 25 23 24 23
15 15 17 18 19 18 16 18 18 19 19 20 22 22 21 20 23 26 27 28 27 25
16 17 18 18 18 20 20 20 20 20 21 21 21 21 19 20 23 24 28 30 29 25
Wind_Direction
232 232 240 230 245 239 248 266 281 298 313 323 336 356 350 57 345 353 358 348 345 331
240 242 251 262 261 264 270 284 300 307 309 310 309 307 306 308 333 316 319 315 304 295
267 257 258 264 264 267 275 278 283 288 297 304 304 302 303 298 285 286 301 300 297 292
266 276 271 266 269 273 274 278 282 287 291 291 292 294 295 297 301 297 293 292 291 290
266 261 268 272 271 267 277 280 283 284 286 289 292 294 296 297 293 293 294 294 293 290
272 273 269 271 272 273 271 274 281 285 287 288 288 289 288 288 289 287 286 286 285 286
285 280 280 274 268 274 278 283 284 285 285 286 287 286 288 288 286 287 285 285 283 283
284 275 273 275 276 279 279 279 281 283 284 284 285 287 293 297 297 293 291 288 284 282
323 307 300 297 293 290 290 291 291 290 290 290 288 289 284 283 286 285 285 287 289 288
341 334 324 315 308 305 301 298 294 291 291 292 293 293 289 287 286 286 287 288 290 292
323 321 315 309 307 305 304 300 298 297 296 296 296 294 292 291 290 289 289 289 291 288
319 316 314 311 310 307 305 300 299 299 298 297 299 299 296 294 292 293 293 291 287 288
316 311 309 309 308 307 306 302 302 298 298 297 291 295 294 293 290 287 287 287 280 282
310 308 308 307 305 303 302 300 299 300 306 308 309 306 301 297 291 285 281 275 274 274